Volver al catálogo

USA 197

ActivoMilitarGEO
NORAD 32287·PAYLOAD·🇺🇸 United States

Lanzado Nov 11, 2007 desde Cape Canaveral Space Force Station

Loading…

TLE

ActualizadoSource: Mike McCants

Época: Sep 15, 2026, 19:24 UTC

1 32287U 07054A   26258.80877724  .00000000  00000-0  00000-0 0    07
2 32287  11.0385  47.0436 0005207 200.7384 159.2525  1.00202077  5300

Sigue USA 197 en tiempo real con AllMySat

Download on the App Store